TimeEST,TemperatureF,Dew PointF,Humidity,Sea Level PressureIn,VisibilityMPH,Wind Direction,Wind SpeedMPH,Gust SpeedMPH,PrecipitationIn,Events,Conditions,WindDirDegrees,DateUTC
12:53 AM,64.0,46.9,54,29.93,10.0,SW,4.6,-,N/A,,Overcast,220,2013-11-07 05:53:00
1:53 AM,64.0,48.0,56,29.91,10.0,SW,13.8,23.0,N/A,,Overcast,220,2013-11-07 06:53:00
2:53 AM,61.0,50.0,67,29.90,10.0,Variable,5.8,-,0.00,,Overcast,0,2013-11-07 07:53:00
3:53 AM,59.0,52.0,78,29.90,3.0,SW,6.9,17.3,0.03,Rain,Rain,230,2013-11-07 08:53:00
4:19 AM,55.4,53.6,94,29.92,4.0,SSW,8.1,16.1,0.04,Rain,Light Rain,210,2013-11-07 09:19:00
4:35 AM,55.4,53.6,94,29.93,2.5,Variable,5.8,-,0.10,Rain,Heavy Rain,0,2013-11-07 09:35:00
4:44 AM,55.4,53.6,94,29.93,3.0,Variable,4.6,-,0.13,Rain,Rain,0,2013-11-07 09:44:00
4:51 AM,55.4,53.6,94,29.93,1.8,West,5.8,-,0.21,Rain,Heavy Rain,270,2013-11-07 09:51:00
4:53 AM,55.9,54.0,93,29.92,1.5,West,5.8,-,0.22,Rain,Heavy Rain,280,2013-11-07 09:53:00
5:04 AM,55.4,53.6,94,29.93,3.0,SSW,5.8,-,0.03,Rain,Light Rain,210,2013-11-07 10:04:00
5:16 AM,55.4,53.6,94,29.92,4.0,Variable,3.5,-,0.06,Rain,Rain,0,2013-11-07 10:16:00
5:27 AM,55.4,55.4,100,29.93,1.8,West,4.6,-,0.14,Rain,Heavy Rain,280,2013-11-07 10:27:00
5:35 AM,55.4,53.6,94,29.95,3.0,WNW,12.7,23.0,0.16,Rain,Rain,290,2013-11-07 10:35:00
5:53 AM,50.0,46.9,89,29.96,6.0,Variable,4.6,-,0.19,Rain,Light Rain,0,2013-11-07 10:53:00
6:43 AM,48.2,46.4,93,29.97,7.0,Calm,Calm,-,0.08,Rain,Light Rain,0,2013-11-07 11:43:00
6:53 AM,48.9,46.0,90,29.97,6.0,Calm,Calm,-,0.10,Rain,Light Rain,0,2013-11-07 11:53:00
7:12 AM,48.2,46.4,93,30.00,4.0,West,3.5,-,0.04,Rain,Rain,260,2013-11-07 12:12:00
7:24 AM,48.2,46.4,93,30.00,2.5,West,4.6,-,0.08,Rain,Rain,270,2013-11-07 12:24:00
7:30 AM,48.2,46.4,93,29.99,4.0,WNW,4.6,-,0.09,Rain,Light Rain,300,2013-11-07 12:30:00
7:49 AM,48.2,46.4,93,30.01,4.0,WNW,4.6,-,0.12,Rain,Light Rain,300,2013-11-07 12:49:00
7:53 AM,48.0,46.0,93,30.01,4.0,NW,4.6,-,0.13,Rain,Rain,310,2013-11-07 12:53:00
8:02 AM,48.2,44.6,87,30.02,5.0,NW,5.8,-,0.01,Rain,Light Rain,320,2013-11-07 13:02:00
8:10 AM,46.4,44.6,93,30.02,5.0,Variable,5.8,-,0.02,Rain,Light Rain,0,2013-11-07 13:10:00
8:53 AM,46.0,43.0,89,30.04,10.0,NW,8.1,-,0.05,,Overcast,310,2013-11-07 13:53:00
9:22 AM,46.4,42.8,87,30.05,6.0,WNW,5.8,-,N/A,,Overcast,300,2013-11-07 14:22:00
9:30 AM,44.6,42.8,93,30.05,3.0,Variable,6.9,-,0.01,Rain,Light Rain,0,2013-11-07 14:30:00
9:53 AM,45.0,43.0,93,30.07,7.0,NW,5.8,-,0.01,,Overcast,310,2013-11-07 14:53:00
10:04 AM,44.6,42.8,93,30.08,5.0,NW,5.8,-,N/A,,Overcast,310,2013-11-07 15:04:00
10:12 AM,44.6,42.8,93,30.08,1.8,NW,5.8,-,0.01,Rain,Light Rain,320,2013-11-07 15:12:00
10:24 AM,44.6,42.8,93,30.08,3.0,Variable,4.6,-,0.01,,Overcast,0,2013-11-07 15:24:00
10:35 AM,44.6,42.8,93,30.09,10.0,Variable,3.5,-,0.01,,Overcast,0,2013-11-07 15:35:00
10:46 AM,44.6,42.8,93,30.08,10.0,Variable,3.5,-,0.01,,Overcast,0,2013-11-07 15:46:00
10:53 AM,46.0,42.1,86,30.08,10.0,Variable,5.8,-,0.01,,Overcast,0,2013-11-07 15:53:00
11:46 AM,46.4,39.2,76,30.09,10.0,WNW,5.8,-,N/A,,Overcast,290,2013-11-07 16:46:00
11:53 AM,46.0,39.9,79,30.09,10.0,West,8.1,-,N/A,,Overcast,280,2013-11-07 16:53:00
12:14 PM,46.4,39.2,76,30.09,10.0,West,6.9,-,N/A,,Overcast,270,2013-11-07 17:14:00
12:25 PM,44.6,37.4,76,30.08,10.0,West,5.8,-,N/A,,Overcast,280,2013-11-07 17:25:00
12:53 PM,46.0,39.9,79,30.08,10.0,WNW,6.9,-,0.00,Rain,Light Rain,300,2013-11-07 17:53:00
1:01 PM,44.6,39.2,81,30.08,8.0,Variable,6.9,-,0.00,Rain,Light Rain,0,2013-11-07 18:01:00
1:24 PM,44.6,39.2,81,30.08,10.0,WNW,4.6,-,0.00,,Overcast,290,2013-11-07 18:24:00
1:53 PM,46.0,34.0,63,30.08,10.0,West,11.5,19.6,0.00,,Overcast,280,2013-11-07 18:53:00
2:53 PM,45.0,34.0,65,30.08,10.0,WNW,9.2,-,N/A,,Overcast,290,2013-11-07 19:53:00
3:53 PM,45.0,35.1,68,30.09,10.0,Variable,5.8,-,N/A,,Mostly Cloudy,0,2013-11-07 20:53:00
4:53 PM,44.1,28.9,55,30.11,10.0,WNW,10.4,-,N/A,,Overcast,290,2013-11-07 21:53:00
5:53 PM,43.0,25.0,49,30.14,10.0,WNW,10.4,20.7,N/A,,Overcast,290,2013-11-07 22:53:00
6:53 PM,42.1,25.0,51,30.17,10.0,NW,6.9,-,N/A,,Overcast,310,2013-11-07 23:53:00
7:53 PM,42.1,25.0,51,30.19,10.0,WNW,4.6,-,N/A,,Overcast,300,2013-11-08 00:53:00
8:53 PM,41.0,24.1,51,30.18,10.0,Variable,5.8,-,N/A,,Overcast,0,2013-11-08 01:53:00
9:53 PM,41.0,25.0,53,30.17,10.0,SW,3.5,-,N/A,,Overcast,230,2013-11-08 02:53:00
10:53 PM,39.9,25.0,55,30.17,10.0,SW,6.9,-,N/A,,Overcast,230,2013-11-08 03:53:00
11:53 PM,39.9,26.1,58,30.16,10.0,WSW,6.9,-,N/A,,Overcast,240,2013-11-08 04:53:00